Weather History for Laramie, WY

Change the Weather History Date:

Saturday, January 25, 2014

  Actual Average Record
Temperature  
Mean Temperature 34 °F 22 °F  
Max Temperature 49 °F 33 °F 51 °F (1951)
Min Temperature 18 °F 10 °F -13 °F (1949)
Degree Days  
Heating Degree Days 31 43  
Month to date heating degree days 1048 1076  
Since 1 July heating degree days 4571 4749  
Cooling Degree Days 0 0  
Month to date cooling degree days 0 0  
Year to date cooling degree days 0 0  
Moisture  
Dew Point 15 °F    
Average Humidity 49    
Maximum Humidity 67    
Minimum Humidity 31    
Precipitation  
Precipitation 0.00 in 0.01 in 0.25 in (2009)
Month to date precipitation 0.10 0.21  
Year to date precipitation 0.10 0.21  
Sea Level Pressure  
Sea Level Pressure 30.08 in    
Wind  
Wind Speed 12 mph (WSW)    
Max Wind Speed 28 mph    
Max Gust Speed 33 mph    
Visibility 10 miles    
Events      
T = Trace of Precipitation, MM = Missing Value Source: NWS Daily Summary

Daily Weather History Graph

Daily Weather History Graph

Search for Another Location

Airport:

Trip Planner

Search our weather history database for the weather conditions in past years. The results will help you decide how hot, cold, wet, or windy it might be!

Date:

Astronomy

Jan. 25, 2014 Rise Set
Actual Time 7:20 AM MST 5:10 PM MST
Civil Twilight 6:50 AM MST 5:40 PM MST
Nautical Twilight 6:16 AM MST 6:13 PM MST
Astronomical Twilight 5:44 AM MST 6:46 PM MST
Moon 1:54 AM MST (1/25) 12:13 PM MST (1/25)
Length of Visible Light 10h 49m
Length of Day
9h 50m
Waning Crescent, 33% of the Moon is Illuminated
Jan 25
Waning Crescent
Jan 30
New
Feb 6
First Quarter
Feb 14
Full
Feb 22
Last Quarter

Hourly Weather History & Observations

Time (MST) Temp. Windchill Dew Point Humidity Pressure Visibility Wind Dir Wind Speed Gust Speed Precip Events Conditions
12:53 AM 26.1 °F 15.6 °F 10.9 °F 53% 30.23 in 10.0 mi West 11.5 mph - N/A   Clear
1:53 AM 30.0 °F 20.5 °F 12.9 °F 49% 30.18 in 10.0 mi West 11.5 mph 20.7 mph N/A   Clear
2:53 AM 30.0 °F 20.5 °F 12.0 °F 47% 30.17 in 10.0 mi WSW 11.5 mph - N/A   Clear
3:53 AM 28.0 °F 17.0 °F 12.0 °F 51% 30.18 in 10.0 mi WSW 13.8 mph - N/A   Clear
4:53 AM 25.0 °F - 12.9 °F 60% 30.22 in 10.0 mi Calm Calm - N/A   Clear
5:53 AM 24.1 °F 17.0 °F 10.0 °F 55% 30.25 in 10.0 mi SW 5.8 mph - N/A   Clear
6:53 AM 19.0 °F 8.2 °F 10.9 °F 71% 30.29 in 10.0 mi WSW 9.2 mph - N/A   Clear
7:53 AM 24.1 °F 13.1 °F 10.9 °F 57% 30.25 in 10.0 mi West 11.5 mph - N/A   Clear
8:53 AM 33.1 °F 24.9 °F 14.0 °F 46% 30.17 in 10.0 mi WSW 10.4 mph - N/A   Clear
9:53 AM 39.9 °F 32.5 °F 15.1 °F 36% 30.11 in 10.0 mi SW 12.7 mph - N/A   Clear
10:53 AM 42.1 °F 38.4 °F 19.0 °F 40% 30.10 in 10.0 mi Variable 5.8 mph - N/A   Clear
11:53 AM 46.0 °F 37.6 °F 19.0 °F 34% 30.04 in 10.0 mi WSW 24.2 mph 28.8 mph N/A   Clear
12:05 PM 46.4 °F 38.7 °F 19.4 °F 34% 30.09 in 10.0 mi WSW 20.7 mph - N/A   Clear
12:53 PM 46.9 °F - 18.0 °F 32% 29.99 in 10.0 mi WSW 24.2 mph 29.9 mph N/A   Clear
1:53 PM 48.0 °F - 19.0 °F 32% 29.94 in 10.0 mi WSW 17.3 mph - N/A   Clear
2:53 PM 48.0 °F - 19.9 °F 33% 29.92 in 10.0 mi WNW 15.0 mph 20.7 mph N/A   Clear
3:53 PM 45.0 °F 36.2 °F 19.0 °F 36% 29.95 in 10.0 mi West 24.2 mph 31.1 mph N/A   Clear
4:53 PM 39.9 °F 30.8 °F 18.0 °F 41% 30.01 in 10.0 mi West 18.4 mph - N/A   Clear
5:53 PM 36.0 °F 25.0 °F 17.1 °F 46% 30.03 in 10.0 mi WSW 20.7 mph 24.2 mph N/A   Clear
6:53 PM 33.1 °F 27.7 °F 17.1 °F 52% 30.07 in 10.0 mi SW 5.8 mph - N/A   Clear
7:53 PM 35.1 °F 27.4 °F 17.1 °F 48% 30.01 in 10.0 mi SSW 10.4 mph - N/A   Clear
8:53 PM 30.9 °F 20.7 °F 15.1 °F 52% 30.00 in 10.0 mi SSW 13.8 mph - N/A   Clear
9:53 PM 28.9 °F 20.4 °F 15.1 °F 56% 29.96 in 10.0 mi SSW 9.2 mph - N/A   Clear
10:53 PM 27.0 °F 23.0 °F 16.0 °F 63% 29.98 in 10.0 mi South 3.5 mph - N/A   Clear
11:53 PM 28.9 °F - 16.0 °F 58% 29.93 in 10.0 mi Calm Calm - N/A   Clear